Airfield :
LOGIN :

Register | Disclaimer

   EN    FR    IT 

 










Legend :    VFR   Marginal VFR   IFR   Intensive IFR   Very Intensive IFR
Visi :
Ceiling :
>= 8 km
>= 3000ft
5 to 8 km
1000 to 3000 ft
1500m to 5 km
500 to 1000 ft
800 to 1500m
200 to 500 ft
< 800m
< 200 ft
Symbols :   Thunderstorms  Fog  Heavy snow  Heavy precipitations  Wind > 20 kt
SIGMETs :     Misc.  Thunderstorms  Icing  Turbulence  Mountain Waves  Volcanic Ashes







- Airport Elevation : 306 ft
- IATA code : EMA
- Download approach charts


EGNX - Nottingham East Midlands

CURRENT METAR :
  • 200120Z 28008KT 9999 FEW030 06/06 Q1018

EXPIRED METARs :
  • 200050Z 28008KT 9999 FEW021 SCT028 07/06 Q1018
  • 200020Z 30008KT 9999 SCT048 08/07 Q1018
  • 192350Z 28007KT 9999 SCT041 08/07 Q1018
  • 192320Z 28007KT 9999 SCT042 08/07 Q1018
  • 192250Z 28007KT 9999 BKN039 08/07 Q1017

TAF TAF EGNX
Valid from the 20 at 00:00 until the 21 at 00:00 UTC


192259Z 2000/2024 29010KT 9999 SCT020
BECMG 2000/2002 8000 BKN012
PROB40 2000/2006 3000 -DZ BR BKN004
BECMG 2006/2009 9999 SCT025
BECMG 2009/2012 36012KT
PROB40
TEMPO 2010/2019 36015G25KT
ATIS : +44 1332 852 852 (ext 3201)
No reported NOTAMs for that airfield.



MET'MAP, your aeronautical weather chart ! - Copyright ORBIFLY December 2007 - Disclaimer

ORBIFLY MET'MAP TEAM :

Programming & Development : Alexandra Zaïnal
Concept & Development : Baudouin d'Aumeries
Co-Development & Prog : Marc-Olivier Méhu
Technical & hardware support : Manuel Goepfert

Contact : metmap@orbifly.com




SOURCES & CREDITS :

   NOAA